Airfield :
LOGIN :

Register | Disclaimer

   EN    FR    IT 

 










Legend :    VFR   Marginal VFR   IFR   Intensive IFR   Very Intensive IFR
Visi :
Ceiling :
>= 8 km
>= 3000ft
5 to 8 km
1000 to 3000 ft
1500m to 5 km
500 to 1000 ft
800 to 1500m
200 to 500 ft
< 800m
< 200 ft
Symbols :   Thunderstorms  Fog  Heavy snow  Heavy precipitations  Wind > 20 kt
SIGMETs :     Misc.  Thunderstorms  Icing  Turbulence  Mountain Waves  Volcanic Ashes






- Airport Elevation : 302 ft


LFPM - Melun Villaroche

CURRENT METAR :
  • 191400Z AUTO 23020KT 9999 SCT020 ///// Q1014

EXPIRED METARs :
  • 191330Z AUTO 23018KT 9999 FEW001 08/04 Q1014
  • 191300Z AUTO 23018KT 9999 FEW022 08/04 Q1015
  • 191230Z AUTO 23019KT 9999 FEW020 07/04 Q1015
  • 191200Z AUTO 22018KT 9999 FEW019 07/04 Q1016
  • 191130Z AUTO 23019KT 9999 BKN015 BKN140 07/04 Q1016

Expired Forecast.
ATIS : +33 1 64 14 28 44



MET'MAP, your aeronautical weather chart ! - Copyright ORBIFLY December 2007 - Disclaimer

ORBIFLY MET'MAP TEAM :

Programming & Development : Alexandra Zaïnal
Concept & original design : Baudouin d'Aumeries
Assistance for programming : Marc-Olivier Méhu
Technical & hardware support : Manuel Goepfert

Contact : metmap@orbifly.com




SOURCES & CREDITS :

   NOAA